Radiation Dose at Monitoring Post of Fukushima Daini Nuclear Power Station
Date,Time,MP-1(microSv/h),MP-2(microSv/h),MP-3(microSv/h),MP-4(microSv/h),MP-5(microSv/h),MP-6(microSv/h),MP-7(microSv/h),Wind Direction,Wind Velocity(m/s),Rain
2024/05/23,00:00,0.145,0.128,0.207,0.194,0.205,0.114,0.075,south-southwest,5.9,No
2024/05/23,00:10,0.144,0.127,0.207,0.194,0.206,0.114,0.074,south,6.5,No
2024/05/23,00:20,0.145,0.128,0.208,0.194,0.203,0.114,0.075,south,6.2,No
2024/05/23,00:30,0.144,0.127,0.206,0.196,0.207,0.114,0.075,south,6.2,No
2024/05/23,00:40,0.144,0.128,0.206,0.194,0.202,0.114,0.075,south,5.3,No
2024/05/23,00:50,0.145,0.127,0.207,0.195,0.206,0.114,0.075,south,6.5,No
2024/05/23,01:00,0.145,0.128,0.207,0.194,0.203,0.114,0.074,south,6.3,No
2024/05/23,01:10,0.145,0.127,0.208,0.195,0.204,0.114,0.075,south,6.6,No
2024/05/23,01:20,0.144,0.128,0.207,0.194,0.204,0.114,0.075,south,6.7,No
2024/05/23,01:30,0.145,0.127,0.207,0.195,0.205,0.114,0.075,south,6.2,No
2024/05/23,01:40,0.144,0.128,0.207,0.195,0.205,0.115,0.074,south,5.8,No
2024/05/23,01:50,0.145,0.128,0.207,0.195,0.205,0.115,0.074,south,5.6,No
2024/05/23,02:00,0.144,0.129,0.207,0.195,0.205,0.114,0.075,south,5.3,No
2024/05/23,02:10,0.145,0.127,0.206,0.194,0.205,0.115,0.075,south,5.1,No
2024/05/23,02:20,0.145,0.128,0.206,0.194,0.206,0.114,0.074,south,5.1,No
2024/05/23,02:30,0.144,0.128,0.207,0.195,0.204,0.114,0.074,south-southwest,4.9,No
2024/05/23,02:40,0.144,0.128,0.207,0.195,0.206,0.113,0.075,south-southwest,4.6,No
2024/05/23,02:50,0.144,0.129,0.208,0.193,0.203,0.114,0.074,south-southwest,5.1,No
2024/05/23,03:00,0.145,0.127,0.206,0.196,0.205,0.114,0.075,south,4.7,No
2024/05/23,03:10,0.145,0.127,0.207,0.195,0.205,0.115,0.074,south-southwest,4.0,No
2024/05/23,03:20,0.145,0.128,0.207,0.194,0.205,0.114,0.075,south-southwest,4.5,No
2024/05/23,03:30,0.145,0.127,0.206,0.195,0.204,0.114,0.075,south-southwest,4.6,No
2024/05/23,03:40,0.145,0.129,0.207,0.195,0.205,0.114,0.074,south-southwest,4.1,No
2024/05/23,03:50,0.144,0.127,0.206,0.195,0.204,0.115,0.074,south-southwest,4.9,No
2024/05/23,04:00,0.145,0.127,0.208,0.195,0.205,0.114,0.074,southwest,4.5,No
2024/05/23,04:10,0.145,0.128,0.206,0.195,0.203,0.114,0.075,southwest,4.3,No
2024/05/23,04:20,0.145,0.128,0.207,0.194,0.205,0.114,0.075,southwest,6.5,No
2024/05/23,04:30,0.146,0.128,0.207,0.194,0.205,0.114,0.074,southwest,7.2,No
2024/05/23,04:40,0.145,0.128,0.207,0.195,0.204,0.113,0.074,southwest,6.5,No
2024/05/23,04:50,0.145,0.128,0.206,0.195,0.204,0.115,0.075,southwest,5.4,No
2024/05/23,05:00,0.144,0.128,0.206,0.195,0.204,0.113,0.075,southwest,6.9,No
2024/05/23,05:10,0.145,0.127,0.208,0.194,0.203,0.115,0.074,south-southwest,4.6,No
2024/05/23,05:20,0.144,0.128,0.206,0.195,0.205,0.113,0.075,south-southwest,4.3,No
2024/05/23,05:30,0.145,0.127,0.206,0.194,0.204,0.115,0.074,south-southwest,5.5,No
2024/05/23,05:40,0.145,0.128,0.206,0.194,0.205,0.115,0.074,southwest,5.5,No
2024/05/23,05:50,0.145,0.127,0.207,0.194,0.202,0.114,0.075,southwest,5.9,No
2024/05/23,06:00,0.145,0.127,0.207,0.194,0.204,0.115,0.074,southwest,4.6,No
2024/05/23,06:10,0.144,0.128,0.206,0.195,0.204,0.114,0.074,southwest,6.2,No
2024/05/23,06:20,0.144,0.127,0.207,0.193,0.202,0.115,0.075,southwest,6.5,No
2024/05/23,06:30,0.143,0.128,0.207,0.194,0.205,0.113,0.075,southwest,5.0,No
2024/05/23,06:40,0.145,0.128,0.206,0.192,0.203,0.114,0.074,southwest,5.3,No
2024/05/23,06:50,0.144,0.127,0.208,0.194,0.205,0.114,0.075,southwest,5.3,No
2024/05/23,07:00,0.143,0.127,0.205,0.194,0.205,0.114,0.075,west-southwest,5.4,No
2024/05/23,07:10,0.145,0.128,0.205,0.193,0.202,0.115,0.074,west-southwest,6.7,No
2024/05/23,07:20,0.145,0.127,0.207,0.195,0.206,0.113,0.074,southwest,4.7,No
2024/05/23,07:30,0.143,0.127,0.206,0.193,0.205,0.114,0.074,southwest,3.7,No
2024/05/23,07:40,0.143,0.126,0.205,0.193,0.203,0.114,0.074,south,3.6,No
2024/05/23,07:50,0.143,0.127,0.205,0.191,0.204,0.113,0.075,south-southeast,4.7,No
2024/05/23,08:00,0.144,0.128,0.204,0.194,0.206,0.113,0.074,south-southeast,4.6,No
2024/05/23,08:10,0.146,0.127,0.204,0.195,0.203,0.115,0.074,south-southeast,5.0,No
2024/05/23,08:20,0.144,0.127,0.205,0.193,0.202,0.115,0.073,south-southeast,6.6,No
2024/05/23,08:30,0.143,0.127,0.205,0.193,0.205,0.114,0.075,south,6.9,No
2024/05/23,08:40,0.144,0.129,0.205,0.192,0.205,0.114,0.074,south-southeast,6.1,No
2024/05/23,08:50,0.144,0.127,0.208,0.193,0.204,0.115,0.074,south-southeast,5.2,No
2024/05/23,09:00,0.143,0.126,0.208,0.195,0.203,0.113,0.074,south-southeast,6.3,No
2024/05/23,09:10,0.145,0.127,0.207,0.195,0.203,0.113,0.074,south,7.0,No
2024/05/23,09:20,0.145,0.128,0.205,0.196,0.204,0.115,0.075,south,6.4,No
2024/05/23,09:30,0.145,0.128,0.206,0.195,0.206,0.115,0.074,south,6.9,No
2024/05/23,09:40,0.143,0.128,0.205,0.194,0.205,0.113,-,south-southeast,7.5,No
2024/05/23,09:50,0.143,0.128,0.204,0.193,0.204,0.114,-,south-southeast,8.1,No
2024/05/23,10:00,0.143,0.126,0.205,0.193,0.203,0.114,-,south,8.6,No
2024/05/23,10:10,0.146,0.128,0.204,0.195,0.202,0.114,-,south-southeast,8.7,No
2024/05/23,10:20,0.146,0.129,0.205,0.194,0.205,0.114,-,south,8.5,No
2024/05/23,10:30,0.144,0.128,0.205,0.196,0.205,0.115,-,south-southeast,7.7,No
2024/05/23,10:40,0.144,0.127,0.205,0.194,0.206,0.114,-,south,8.5,No
2024/05/23,10:50,0.144,0.128,0.206,0.193,0.203,0.114,-,south,8.8,No
2024/05/23,11:00,0.143,0.127,0.206,0.195,0.203,0.115,-,south,8.7,No
2024/05/23,11:10,0.143,0.127,0.207,0.193,0.204,0.115,-,south-southeast,9.5,No
2024/05/23,11:20,0.144,0.127,0.208,0.193,0.202,0.114,-,south-southeast,10.0,No
2024/05/23,11:30,0.143,0.126,0.206,0.193,0.203,0.115,-,south-southeast,9.8,No
2024/05/23,11:40,0.143,0.128,0.206,0.193,0.202,0.114,-,south,9.2,No
2024/05/23,11:50,0.144,0.129,0.206,0.195,0.203,0.115,-,south-southeast,8.9,No
2024/05/23,12:00,0.143,0.128,0.205,0.197,0.203,0.114,-,south,10.9,No
2024/05/23,12:10,0.142,0.127,0.205,0.196,0.204,0.114,-,south-southeast,11.2,No
2024/05/23,12:20,0.145,0.127,0.207,0.194,0.207,0.115,-,south,10.7,No
2024/05/23,12:30,0.147,0.128,0.206,0.194,0.206,0.114,-,south,10.3,No
2024/05/23,12:40,0.146,0.126,0.207,0.195,0.205,0.114,-,south,9.8,No
2024/05/23,12:50,0.144,0.127,0.209,0.195,0.203,0.115,-,south-southeast,10.4,No
2024/05/23,13:00,0.144,0.129,0.208,0.196,0.204,0.114,-,south,10.7,No
2024/05/23,13:10,0.143,0.129,0.208,0.196,0.204,0.115,-,south,11.2,No
2024/05/23,13:20,0.144,0.129,0.207,0.195,0.206,0.114,-,south,9.6,No
2024/05/23,13:30,0.146,0.127,0.206,0.194,0.205,0.114,-,south,10.9,No
2024/05/23,13:40,0.145,0.128,0.207,0.196,0.203,0.114,-,south,9.5,No
2024/05/23,13:50,0.145,0.129,0.209,0.196,0.203,0.115,-,south-southeast,10.9,No
2024/05/23,14:00,0.144,0.128,0.209,0.195,0.201,0.115,-,south,10.9,No
2024/05/23,14:10,0.145,0.127,0.206,0.193,0.206,0.114,-,south,12.3,No
2024/05/23,14:20,0.146,0.127,0.206,0.194,0.205,0.114,-,south,10.3,No
2024/05/23,14:30,0.144,0.129,0.206,0.196,0.204,0.115,-,south,10.7,No
2024/05/23,14:40,0.145,0.129,0.208,0.196,0.204,0.113,-,south,12.9,No
2024/05/23,14:50,0.144,0.128,0.208,0.193,0.203,0.113,-,south-southeast,10.1,No
2024/05/23,15:00,0.143,0.127,0.207,0.193,0.203,0.115,-,south-southeast,10.3,No
2024/05/23,15:10,0.144,0.128,0.206,0.196,0.206,0.115,-,south,10.7,No
2024/05/23,15:20,0.147,0.128,0.206,0.195,0.205,0.114,-,south,9.6,No
2024/05/23,15:30,0.145,0.128,0.208,0.195,0.205,0.114,-,south,10.3,No
2024/05/23,15:40,0.145,0.127,0.209,0.194,0.203,0.114,-,south,10.3,No
2024/05/23,15:50,0.144,0.128,0.206,0.196,0.203,0.115,-,south,8.5,No
2024/05/23,16:00,0.145,0.128,0.206,0.197,0.205,0.114,-,south,7.5,No
2024/05/23,16:10,0.146,0.128,0.208,0.194,0.207,0.114,0.074,south,7.3,No
2024/05/23,16:20,0.145,0.128,0.210,0.195,0.205,0.115,0.073,south,7.3,No
2024/05/23,16:30,0.144,0.129,0.206,0.196,0.203,0.114,0.073,south,6.4,No
2024/05/23,16:40,0.145,0.128,0.207,0.196,0.204,0.114,0.074,south,6.6,No
2024/05/23,16:50,0.146,0.127,0.209,0.194,0.206,0.115,0.073,south,8.2,No
2024/05/23,17:00,0.145,0.128,0.208,0.197,0.206,0.114,0.074,south-southwest,7.9,No
2024/05/23,17:10,0.145,0.128,0.207,0.196,0.203,0.114,0.074,south-southwest,9.3,No
2024/05/23,17:20,0.146,0.128,0.210,0.194,0.206,0.114,0.073,south,8.1,No
2024/05/23,17:30,0.145,0.128,0.207,0.196,0.206,0.115,0.073,south,7.4,No
2024/05/23,17:40,0.144,0.129,0.208,0.195,0.203,0.114,0.074,south,7.4,No
2024/05/23,17:50,0.145,0.127,0.209,0.196,0.206,0.114,0.073,south,7.2,No
2024/05/23,18:00,0.145,0.129,0.206,0.197,0.206,0.115,0.074,south,5.9,No
2024/05/23,18:10,0.144,0.129,0.209,0.195,0.203,0.113,0.074,south,6.1,No
2024/05/23,18:20,0.145,0.127,0.209,0.196,0.206,0.114,0.073,south,7.9,No
2024/05/23,18:30,0.145,0.128,0.207,0.196,0.205,0.114,0.075,south,7.2,No
2024/05/23,18:40,0.145,0.128,0.209,0.196,0.204,0.115,0.074,south,7.1,No
2024/05/23,18:50,0.146,0.128,0.208,0.196,0.207,0.115,0.074,south,6.4,No
2024/05/23,19:00,0.144,0.129,0.209,0.196,0.205,0.115,0.074,south,7.4,No
2024/05/23,19:10,0.146,0.128,0.208,0.195,0.206,0.114,0.074,south-southwest,6.6,No
2024/05/23,19:20,0.145,0.130,0.209,0.197,0.206,0.115,0.074,south,6.3,No
2024/05/23,19:30,0.145,0.128,0.208,0.195,0.205,0.115,0.074,south,5.5,No
2024/05/23,19:40,0.146,0.128,0.208,0.198,0.207,0.115,0.073,south-southwest,6.1,No
2024/05/23,19:50,0.145,0.129,0.208,0.195,0.204,0.115,0.074,south-southwest,5.3,No
2024/05/23,20:00,0.147,0.129,0.209,0.197,0.207,0.115,0.073,south,5.3,No
2024/05/23,20:10,0.145,0.129,0.209,0.196,0.205,0.116,0.074,south,5.6,No
2024/05/23,20:20,0.147,0.128,0.208,0.195,0.207,0.114,0.074,south-southwest,5.7,No
2024/05/23,20:30,0.145,0.129,0.210,0.198,0.205,0.115,0.074,south-southwest,5.6,No
2024/05/23,20:40,0.145,0.128,0.207,0.195,0.205,0.115,0.074,south-southwest,4.9,No
2024/05/23,20:50,0.146,0.128,0.210,0.197,0.206,0.115,0.075,south-southwest,5.9,No
2024/05/23,21:00,0.145,0.129,0.208,0.195,0.204,0.115,0.074,south-southwest,5.0,No
2024/05/23,21:10,0.146,0.127,0.210,0.197,0.207,0.115,0.075,south-southwest,5.1,No
2024/05/23,21:20,0.145,0.129,0.208,0.195,0.204,0.114,0.074,south-southwest,5.2,No
2024/05/23,21:30,0.147,0.129,0.208,0.198,0.206,0.115,0.075,southwest,5.0,No
2024/05/23,21:40,0.145,0.129,0.209,0.195,0.206,0.114,0.075,southwest,2.4,No
2024/05/23,21:50,0.147,0.128,0.210,0.197,0.206,0.115,0.074,south-southwest,2.9,No
2024/05/23,22:00,0.146,0.129,0.208,0.196,0.207,0.115,0.075,south-southwest,3.4,No
2024/05/23,22:10,0.147,0.129,0.209,0.197,0.205,0.115,0.074,south-southwest,3.0,No
2024/05/23,22:20,0.145,0.129,0.208,0.195,0.207,0.115,0.075,southwest,2.3,No
2024/05/23,22:30,0.146,0.128,0.209,0.196,0.205,0.116,0.075,west-southwest,2.0,No
2024/05/23,22:40,0.145,0.130,0.208,0.197,0.206,0.115,0.074,west,2.5,No
2024/05/23,22:50,0.145,0.129,0.209,0.197,0.205,0.115,0.075,west,1.9,No
2024/05/23,23:00,0.145,0.129,0.207,0.197,0.206,0.116,0.075,southwest,1.3,No
2024/05/23,23:10,0.146,0.129,0.209,0.197,0.205,0.114,0.075,south-southwest,2.7,No
2024/05/23,23:20,0.146,0.128,0.208,0.196,0.206,0.115,0.075,south-southwest,2.8,No
2024/05/23,23:30,0.146,0.128,0.210,0.196,0.205,0.115,0.074,southwest,2.1,No
2024/05/23,23:40,0.146,0.128,0.209,0.196,0.205,0.115,0.075,southwest,2.0,No
2024/05/23,23:50,0.146,0.129,0.210,0.196,0.205,0.115,0.075,south-southwest,2.6,No
